Location: Unspecified
(54.1780°N, 0.0000°E)
Time: 18:06:41
(UTC+00:00)

Transit 2A - Pass Details

Date: 17 June 2019
Orbit: 597 x 962 km, 66.7° (Epoch: 24 August)

Event Time Altitude Azimuth Distance (km) Brightness Sun altitude
Rises 03:15:58 0° 240° (WSW) 3,639 - -1.9°
Exits shadow 03:16:12 - 240° (WSW) 3,556 8.8 -1.8°
Reaches altitude 10° 03:18:37 10° 245° (WSW) 2,697 8.2 -1.6°
Maximum altitude 03:24:50 53° 322° (NW) 1,152 7.0 -0.9°
Drops below altitude 10° 03:30:50 10° 39° (NE) 2,603 10.9 -0.3°
Sets 03:33:22 0° 44° (NE) 3,502 13.2 0.0°
